www.pogodaiklimat.ru

Погода и климат >> Архив погоды >> Кувейт >> Кувейт Сити


ПОГОДА в Кувейт Сити

  • Прогноз погоды в Кувейт Сити
  • Монитор погоды в Кувейт Сити

АРХИВ ПОГОДЫ в Кувейт Сити

Время (UTC), дата Ветер
(напр.,м/с)
 
Видим.   Явления Облачность Т
(С)
Тd
(С)
f
(%)
Тe
(С)
Тes
(С)
Комфортность P
(гПа)
Po
(гПа)
Тmin
(С)
Tmax
(С)
R
(мм)
R24
(мм)
S
(см)
06 19.08 ЮЗ 2-5
{5}
н/о н/о +39.5 +6.8 14 +37 +37 очень
жарко
1004.9 1003.7
09 19.08 СВ 3-6
{6}
н/о н/о +43.8 +7.3 11 +41 +41 опасность
перегрева
1004.5 1003.3
12 19.08 В 3-6
{8}
н/о н/о +42.4 +11.9 17 +42 +42 опасность
перегрева
1003.2 1002.0
15 19.08 В 1-2
{6}
н/о н/о +41.2 +7.9 14 +39 +39 очень
жарко
1003.3 1002.1
18 19.08 СВ 1-1
{6}
н/о н/о +37.6 +13.8 24 +38 +38 очень
жарко
1005.0 1003.8
21 19.08 З 1-3
{5}
н/о н/о +38.2 +6.2 14 +36 +36 очень
жарко
1004.6 1003.4 +32.2 +46.1
00 20.08 В 1-1
{5}
н/о н/о +34.6 +5.9 17 +32 +32 жарко 1004.0 1002.8
03 20.08 Ю 1-4
{4}
н/о н/о +35.0 +11.0 23 +34 +34 очень
жарко
1004.9 1003.7
06 20.08 С 2-3
{5}
н/о н/о +40.7 +6.3 12 +38 +38 очень
жарко
1006.0 1004.8
09 20.08 В 2-5
{6}
н/о н/о +44.3 +5.3 10 +42 +42 опасность
перегрева
1005.2 1004.0
12 20.08 В 2-4
{7}
н/о н/о +44.2 +9.6 13 +43 +43 опасность
перегрева
1003.5 1002.3
15 20.08 ЮЗ 1-2
{7}
н/о н/о +40.0 +13.2 21 +40 +40 очень
душно
1003.2 1002.0
18 20.08 Ю 2-4
{7}
н/о н/о +39.9 +8.4 15 +38 +38 очень
жарко
1004.1 1002.9
21 20.08 Ю 2-5
{7}
н/о н/о +38.3 +6.1 14 +36 +36 очень
жарко
1003.8 1002.6 +33.7 +46.1
00 21.08 ЮВ 1-3
{7}
н/о н/о +36.8 +5.7 15 +34 +34 очень
жарко
1003.5 1002.3
03 21.08 С 1-3
{5}
н/о н/о +36.1 +5.6 15 +33 +33 жарко 1003.7 1002.5
06 21.08 СЗ 2-4
{5}
н/о н/о +40.3 +4.2 11 +37 +37 очень
жарко
1004.9 1003.7
09 21.08 СЗ 2-4
{5}
н/о н/о +46.4 +3.4 8 +43 +43 опасность
перегрева
1003.5 1002.3
12 21.08 В 3-6
{7}
н/о н/о +46.6 +3.2 7 +43 +43 опасность
перегрева
1001.7 1000.5
15 21.08 СВ 1-2
{8}
н/о н/о +41.4 +15.5 22 +43 +43 опасность
перегрева
1001.3 1000.1
18 21.08 В 1-1
{8}
н/о н/о +39.3 +9.1 16 +37 +37 очень
жарко
1002.3 1001.1
21 21.08 С 3-9
{9}
н/о н/о +39.5 +5.4 12 +37 +37 очень
жарко
1002.0 1000.8 +35.8 +47.9
00 22.08 СЗ 3-7
{9}
н/о н/о +35.7 +11.3 23 +35 +35 очень
жарко
1002.0 1000.8
03 22.08 СЗ 3-5
{10}
н/о н/о +33.9 +13.0 28 +34 +34 очень
жарко
1003.1 1001.9
06 22.08 З 2-5
{10}
н/о н/о +38.3 +9.4 17 +37 +37 очень
жарко
1003.7 1002.5
09 22.08 З 2-5
{6}
н/о н/о +46.0 +6.1 9 +43 +43 опасность
перегрева
1002.0 1000.8
12 22.08 В 2-6
{8}
н/о н/о +43.9 +10.8 14 +43 +43 опасность
перегрева
1000.9 999.7
15 22.08 СВ 1-2
{8}
н/о н/о +42.1 +8.5 13 +40 +40 очень
жарко
1000.4 999.2
18 22.08 СЗ 2-6
{8}
н/о н/о +41.0 +5.9 12 +38 +38 очень
жарко
1001.8 1000.6
21 22.08 ЮВ 1-5
{10}
н/о н/о +36.5 +11.0 21 +36 +36 очень
жарко
1002.0 1000.8 +33.8 +47.1
00 23.08 В 2-7
{10}
н/о н/о +34.9 +10.0 22 +34 +34 очень
жарко
1002.4 1001.2
03 23.08 ЮВ 2-5
{8}
н/о н/о +33.7 +9.3 22 +32 +32 жарко 1003.0 1001.8
06 23.08 СЗ 2-6
{8}
н/о н/о +37.0 +6.2 15 +34 +34 очень
жарко
1003.8 1002.6
09 23.08 С 2-4
{7}
н/о н/о +43.7 +2.1 8 +40 +40 очень
жарко
1002.4 1001.2
12 23.08 В 3-7
{10}
н/о н/о +42.7 +16.4 22 +45 +45 опасность
перегрева
1001.2 1000.0
15 23.08 Ю 3-8
{8}
н/о н/о +37.7 +17.8 31 +41 +41 опасность
перегрева
1001.2 1000.0
18 23.08 Ю 3-6
{8}
н/о н/о +38.7 +10.1 18 +37 +37 очень
жарко
1002.4 1001.2
21 23.08 С 2-5
{8}
н/о н/о +36.6 +11.4 22 +36 +36 очень
жарко
1002.1 1000.9 +33.5 +47.7
00 24.08 СЗ 2-4
{8}
н/о н/о +33.5 +13.4 30 +34 +34 очень
жарко
1002.2 1001.0
03 24.08 З 1-3
{5}
н/о н/о +31.5 +26.4 74 +48 +48 опасность
перегрева
1003.8 1002.6
06 24.08 СВ 2-4
{5}
н/о н/о +34.8 +28.8 71 +58 +58 опасность
перегрева
1005.2 1004.0
09 24.08 В 3-6
{7}
н/о н/о +36.1 +30.4 73 +65 +65 опасность
перегрева
1004.0 1002.8
12 24.08 В 3-7
{8}
н/о н/о +36.8 +29.1 65 +61 +61 опасность
перегрева
1003.1 1001.9
15 24.08 Ю 2-6
{7}
н/о н/о +37.9 +19.9 35 +43 +43 опасность
перегрева
1002.6 1001.4
18 24.08 В 1-2
{7}
н/о н/о +34.6 +28.5 71 +57 +57 опасность
перегрева
1003.6 1002.4
21 24.08 Ю 2-4
{5}
н/о н/о +35.6 +15.8 31 +38 +38 очень
душно
1002.8 1001.6 +31.3 +38.8
00 25.08 Ю 2-5
{6}
н/о н/о +33.1 +27.1 71 +51 +51 опасность
перегрева
1003.2 1002.0
03 25.08 Ю 1-3
{6}
н/о н/о +32.2 +26.8 73 +50 +50 опасность
перегрева
1004.1 1002.9
06 25.08 Ю 2-6
{6}
н/о н/о +40.4 +18.6 28 +44 +44 опасность
перегрева
1004.5 1003.3
09 25.08 В 3-6
{7}
н/о н/о +38.7 +25.0 46 +52 +52 опасность
перегрева
1003.1 1001.9
12 25.08 ЮВ 2-5
{7}
н/о н/о +42.1 +13.8 19 +42 +42 опасность
перегрева
1001.8 1000.6
15 25.08 Ю 2-5
{6}
н/о н/о +41.1 +11.4 17 +40 +40 очень
жарко
1000.9 999.7
18 25.08 ЮВ 1-2
{8}
н/о н/о +37.4 +17.2 31 +40 +40 очень
душно
1002.5 1001.3
21 25.08 Ю 3-7
{7}
н/о н/о +38.3 +9.6 18 +37 +37 очень
жарко
1001.7 1000.5 +32.0 +44.0
00 26.08 В 1-2
{7}
н/о н/о +34.2 +19.0 41 +39 +39 очень
душно
1001.8 1000.6
03 26.08 Ю 2-4
{5}
н/о н/о +35.6 +9.1 20 +34 +34 очень
жарко
1002.7 1001.5

 

Местоположение метеостанции Кувейт Сити (Кувейт): широта 29.33 долгота 48.05 высота над уровнем моря 11 м.

В архиве по умолчанию представлена погода в Кувейт Сити за последнюю неделю. Архивные данные за месяц целиком и за предыдущие месяцы, начиная с января 2011 года, Вы можете получить, выбрав интересующий диапазон дат из раскрывающегося списка и нажав кнопку "Ввод!".


*Определитесь, кто Вы:
робот инопланетянин человек

Внимание! Время в таблицах - всемирное. Для получения местного времени необходимо прибавить поправку, которая равна 3 ч.

Смотрите также архив погоды в соседних городах и на ближайших метеорологических станциях:

Погода в Аль-Шуаиба (Кувейт) (5 км)
Погода на Экспериментальной ферме (Кувейт) (12 км)
Погода в Эль-Кувейте (Кувейт) (14 км)
Погода Остров Файлака (Кувейт) (27 км)
Погода в Сулайбии (Кувейт) (33 км)
Погода в Эль-Джахра (Кувейт) (37 км)
Погода на Метеостанции Sabriyah (Кувейт) (51 км)
Погода на Метеостанции Jal Aliyah (Кувейт) (55 км)
Погода в Порту Juluiah (Кувейт) (56 км)
Погода в Минагише (Кувейт) (58 км)

Пояснения к столбцам:

Ветер - указаны скорость ветра в м/с - средняя за 10 мин, порывы в срок и между сроками (в фигурных скобках) и направление, откуда дует ветер: С - северный, СВ - северо-восточный, В - восточный, ЮВ - юго-восточный, Ю - южный, ЮЗ - юго-западный, З - западный, СЗ - северо-западный.
Видимость - горизонтальная дальность видимости в метрах или километрах. При видимости от 1 до 10 км при отсутствии осадков обычно наблюдается дымка, при ухудшении видимости до 1 км и менее - туман. В сухую погоду видимость может ухудшаться дымом, пылью или мглою.
Явления - указаны атмосферные явления, наблюдавшиеся в срок или в последний час перед сроком; фигурными скобками обозначены явления, наблюдавшиеся между сроками (за 1-3 часа до срока); квадратными скобками обозначены град или гололедные отложения с указанием их диаметра в мм.
Облачность - указаны через наклонную черту общая и нижняя облачность в баллах и высота нижней границы облаков в метрах; квадратными скобками обозначены формы облаков: Ci - перистые, Cs - перисто-слоистые, Cc - перисто-кучевые, Ac - высококучевые, As - высокослоистые, Sc - слоисто-кучевые, Ns - слоисто-дождевые, Cu - кучевые, Cb - кучево-дождевые. Подробнее классификацию облаков см. в Атласе облаков (PDF).
T - Температура воздуха - температура, измеренная на высоте 2 м над землей.
Td - Температура точки росы - температура, при понижении до которой содержащийся в воздухе водяной пар достигнет насыщения.
f - Относительная влажность воздуха - влажноcть воздуха, измеренная на высоте 2 м над землей.
Te - Эффективная температура - температура, которую ощущает одетый по сезону человек в тени. Характеристика душности погоды. При расчете учитывается влияние влажности воздуха и скорости ветра на теплоощущения человека.
Tes - Эффективная температура на солнце - температура, которую ощущает человек, с поправкой на солнечный нагрев. Характеристика знойности погоды. Зависит от высоты солнца над горизонтом, облачности и скорости ветра. Ночью, в пасмурную погоду, а также при ветре 12 м/с и более поправка равна нулю.
P - Атмосферное давление - приведенное к уровню моря атмосферное давление.
Po - Атмосферное давление - измеренное на уровне метеостанции атмосферное давление.
Tmin - Минимальная температура - минимум температуры воздуха на высоте 2 м над землей.
Tmax - Максимальная температура - максимум температуры воздуха на высоте 2 м над землей.
R - Количество осадков - Количество выпавших осадков за период времени, мм. При наведении курсора мыши на число - период времени, за который выпало указанное количество осадков.
R24 - Количество осадков - Количество выпавших осадков за 24 часа, мм.
S - Снежный покров - Высота снежного покрова, см. При наведении курсора мыши на число - состояние снежного покрова и степень покрытия местности в баллах.